TimeEDT,TemperatureF,Dew PointF,Humidity,Sea Level PressureIn,VisibilityMPH,Wind Direction,Wind SpeedMPH,Gust SpeedMPH,PrecipitationIn,Events,Conditions,WindDirDegrees,DateUTC
12:53 AM,78.1,71.1,79,29.96,10.0,East,3.5,-,N/A,,Partly Cloudy,80,2013-10-19 04:53:00
1:53 AM,77.0,72.0,84,29.95,10.0,Calm,Calm,-,N/A,,Scattered Clouds,0,2013-10-19 05:53:00
2:53 AM,77.0,72.0,84,29.94,10.0,Calm,Calm,-,N/A,,Partly Cloudy,0,2013-10-19 06:53:00
3:53 AM,77.0,72.0,84,29.94,10.0,East,3.5,-,N/A,,Partly Cloudy,90,2013-10-19 07:53:00
4:53 AM,75.9,72.0,87,29.93,10.0,Calm,Calm,-,N/A,,Partly Cloudy,0,2013-10-19 08:53:00
5:53 AM,77.0,71.1,82,29.94,10.0,Calm,Calm,-,N/A,,Partly Cloudy,0,2013-10-19 09:53:00
6:53 AM,75.9,71.1,85,29.94,10.0,Calm,Calm,-,N/A,,Partly Cloudy,0,2013-10-19 10:53:00
7:53 AM,75.9,71.1,85,29.95,10.0,Calm,Calm,-,N/A,,Scattered Clouds,0,2013-10-19 11:53:00
8:53 AM,78.1,72.0,81,29.96,10.0,Variable,3.5,-,N/A,,Scattered Clouds,0,2013-10-19 12:53:00
9:53 AM,81.0,72.0,74,29.96,10.0,South,8.1,-,N/A,,Partly Cloudy,180,2013-10-19 13:53:00
10:53 AM,82.0,73.0,74,29.97,10.0,South,9.2,-,N/A,,Overcast,190,2013-10-19 14:53:00
11:53 AM,82.0,73.9,76,29.96,10.0,South,9.2,-,N/A,,Mostly Cloudy,180,2013-10-19 15:53:00
12:53 PM,84.0,73.9,72,29.94,10.0,SSW,8.1,-,N/A,,Scattered Clouds,200,2013-10-19 16:53:00
1:53 PM,84.9,70.0,61,29.92,10.0,South,4.6,-,N/A,,Mostly Cloudy,190,2013-10-19 17:53:00
2:53 PM,84.9,69.1,59,29.90,10.0,Variable,4.6,-,N/A,,Overcast,0,2013-10-19 18:53:00
3:53 PM,84.9,72.0,65,29.89,10.0,West,6.9,-,N/A,,Overcast,270,2013-10-19 19:53:00
4:53 PM,84.9,72.0,65,29.89,10.0,WNW,9.2,-,N/A,,Mostly Cloudy,290,2013-10-19 20:53:00
5:53 PM,84.0,73.9,72,29.89,10.0,WNW,8.1,-,N/A,,Mostly Cloudy,290,2013-10-19 21:53:00
6:53 PM,82.0,73.0,74,29.90,10.0,WNW,5.8,-,N/A,,Mostly Cloudy,300,2013-10-19 22:53:00
7:53 PM,81.0,73.9,79,29.92,10.0,WNW,5.8,-,N/A,,Mostly Cloudy,300,2013-10-19 23:53:00
8:53 PM,80.1,73.0,79,29.92,10.0,NW,4.6,-,N/A,,Mostly Cloudy,310,2013-10-20 00:53:00
9:53 PM,79.0,73.0,82,29.92,10.0,Calm,Calm,-,N/A,,Scattered Clouds,0,2013-10-20 01:53:00
10:53 PM,79.0,73.0,82,29.93,10.0,Calm,Calm,-,N/A,,Scattered Clouds,0,2013-10-20 02:53:00
11:53 PM,79.0,73.9,84,29.93,10.0,Calm,Calm,-,N/A,,Scattered Clouds,0,2013-10-20 03:53:00